Weather History for Adrian, MI

Change the Weather History Date:

Wednesday, April 17, 2013

  Actual Average Record
Temperature  
Mean Temperature 48 °F -  
Max Temperature 55 °F 61 °F 83 °F (1964)
Min Temperature 43 °F 36 °F 25 °F (1978)
Degree Days  
Heating Degree Days 17    
Moisture  
Dew Point 34 °F    
Average Humidity 61    
Maximum Humidity 89    
Minimum Humidity 50    
Precipitation  
Precipitation 0.34 in - - ()
Sea Level Pressure  
Sea Level Pressure 30.22 in    
Wind  
Wind Speed 12 mph (East)    
Max Wind Speed 20 mph    
Max Gust Speed 28 mph    
Visibility 10 miles    
Events Rain    
Averages and records for this station are not official NWS values.
T = Trace of Precipitation, MM = Missing Value Source: NWS Daily Summary

Daily Weather History Graph

Daily Weather History Graph

Search for Another Location

Airport:

Trip Planner

Search our weather history database for the weather conditions in past years. The results will help you decide how hot, cold, wet, or windy it might be!

Date:

Astronomy

Apr. 17, 2013 Rise Set
Actual Time 6:52 AM EDT 8:19 PM EDT
Civil Twilight 6:23 AM EDT 8:48 PM EDT
Nautical Twilight 5:48 AM EDT 9:24 PM EDT
Astronomical Twilight 5:11 AM EDT 10:01 PM EDT
Moon 12:03 PM EDT (4/17) 1:58 AM EDT (4/17)
Length of Visible Light 14h 25m
Length of Day
13h 27m
Waxing Crescent, 42% of the Moon is Illuminated
Apr 17
Waxing Crescent
Apr 18
First Quarter
Apr 25
Full
May 2
Last Quarter
May 9
New

Hourly Weather History & Observations

Time (EDT) Temp. Windchill Dew Point Humidity Pressure Visibility Wind Dir Wind Speed Gust Speed Precip Events Conditions
12:53 AM 46.9 °F - 35.1 °F 63% 30.24 in 10.0 mi NNE 5.8 mph - N/A   Partly Cloudy
1:53 AM 48.0 °F - 36.0 °F 63% 30.27 in 10.0 mi North 6.9 mph - N/A   Overcast
2:53 AM 48.0 °F - 35.1 °F 61% 30.27 in 10.0 mi NE 10.4 mph - N/A   Overcast
3:53 AM 46.9 °F - 37.9 °F 71% 30.28 in 10.0 mi ENE 11.5 mph - N/A   Overcast
4:53 AM 45.0 °F 39.3 °F 33.1 °F 63% 30.31 in 10.0 mi ENE 11.5 mph - N/A   Scattered Clouds
5:53 AM 44.1 °F 37.7 °F 32.0 °F 63% 30.32 in 10.0 mi ENE 12.7 mph - N/A   Mostly Cloudy
6:53 AM 43.0 °F 36.4 °F 30.9 °F 62% 30.33 in 10.0 mi ENE 12.7 mph - N/A   Overcast
7:53 AM 43.0 °F 36.0 °F 30.0 °F 60% 30.34 in 10.0 mi East 13.8 mph - N/A   Scattered Clouds
8:53 AM 44.1 °F 35.9 °F 30.9 °F 60% 30.31 in 10.0 mi East 19.6 mph - N/A   Mostly Cloudy
10:53 AM 50.0 °F - 34.0 °F 54% 30.31 in 10.0 mi ESE 18.4 mph - N/A   Clear
11:53 AM 52.0 °F - 35.1 °F 53% 30.32 in 10.0 mi ESE 18.4 mph 24.2 mph N/A   Clear
12:53 PM 52.0 °F - 35.1 °F 53% 30.31 in 10.0 mi ESE 12.7 mph - N/A   Mostly Cloudy
1:53 PM 53.1 °F - 35.1 °F 50% 30.28 in 10.0 mi ESE 13.8 mph 23.0 mph N/A   Partly Cloudy
2:53 PM 53.1 °F - 35.1 °F 50% 30.24 in 10.0 mi East 17.3 mph - N/A   Mostly Cloudy
3:53 PM 51.1 °F - 33.1 °F 50% 30.20 in 10.0 mi ESE 19.6 mph 27.6 mph N/A   Overcast
4:53 PM 50.0 °F - 32.0 °F 50% 30.18 in 10.0 mi East 15.0 mph 27.6 mph 0.00 in Rain Light Rain
5:00 PM 50.0 °F - 33.8 °F 54% 30.16 in 10.0 mi East 17.3 mph 24.2 mph N/A   Overcast
5:53 PM 48.9 °F - 30.9 °F 50% 30.15 in 10.0 mi ESE 17.3 mph 24.2 mph N/A   Overcast
6:35 PM 48.2 °F - 30.2 °F 50% 30.13 in 10.0 mi ESE 15.0 mph 25.3 mph N/A   Overcast
6:53 PM 48.9 °F - 30.9 °F 50% 30.14 in 10.0 mi SE 17.3 mph 21.9 mph N/A   Overcast
7:53 PM 46.9 °F - 35.1 °F 63% 30.12 in 10.0 mi ESE 15.0 mph - 0.03 in   Overcast
8:53 PM 46.9 °F - 36.0 °F 66% 30.12 in 10.0 mi East 16.1 mph 23.0 mph N/A   Overcast
9:53 PM 46.9 °F - 36.0 °F 66% 30.14 in 10.0 mi NNE 11.5 mph 24.2 mph N/A   Overcast
9:55 PM 46.4 °F 41.1 °F 37.4 °F 71% 30.12 in 10.0 mi NE 11.5 mph 24.2 mph N/A   Overcast
10:25 PM 46.4 °F 41.1 °F 39.2 °F 76% 30.16 in 8.0 mi North 11.5 mph - 0.03 in Rain Light Rain
10:53 PM 44.1 °F 36.8 °F 39.0 °F 82% 30.12 in 5.0 mi East 16.1 mph - 0.10 in Rain Rain
11:53 PM 43.0 °F 36.8 °F 39.9 °F 89% 30.08 in 5.0 mi ESE 11.5 mph - 0.21 in Rain Light Rain